Regional Weather Roundup
Issued by NWS

Home | Current Version | Previous Version | Text Only | Print | Product List | Glossary Off
Versions: 1 2 3 4 5 6 7 8 9 10 11 12 13 14 15 16 17 18 19 20 21 22 23 24 25 26 27 28 29 30 31 32 33 34 35 36 37 38 39 40 41 42 43 44 45 46 47 48 49 50

000
ASUS43 KLSX 181107
RWRMO

WEATHER SUMMARY FOR MISSOURI
NATIONAL WEATHER SERVICE SPRINGFIELD MO
500 AM CST THU JAN 18 2018

NOTE: "FAIR" INDICATES FEW OR NO CLOUDS BELOW 12,000 FEET WITH NO
       SIGNIFICANT WEATHER AND/OR OBSTRUCTIONS TO VISIBILITY.
       CURRENT SKY AND/OR WEATHER CONDITIONS ARE NOT AVAILABLE FOR
       CHILLICOTHE AND FARMINGTON.

MOZ001>031-035>038-043-044-053-054-181200-
...NORTHERN AND WESTERN MISSOURI...

CITY           SKY/WX    TMP DP  RH WIND       PRES   REMARKS
KANSAS CTY INT CLOUDY    18   8  65 SW12      30.28F WCI   5
KANSAS C DTWN  CLEAR     22   8  55 SW8       30.31F WCI  12
LEE`S SUMMIT   CLOUDY    19   8  62 SW14      30.30F WCI   6
ST JOSEPH      CLOUDY    15   9  76 S5        30.28F WCI   8
CHILLICOTHE      N/A     12   7  80 S7        30.30F WCI   1
KIRKSVILLE     CLOUDY    16  10  77 SW10      30.27F WCI   4

$$
MOZ066>068-077>081-088>096-101>105-181200-
...SOUTHWEST MISSOURI...

CITY           SKY/WX    TMP DP  RH WIND       PRES   REMARKS
SPRINGFIELD    CLOUDY     8   2  76 S6        30.40S WCI  -2
JOPLIN         CLOUDY    20   8  60 S13       30.42F WCI   7
BRANSON        CLOUDY    18   3  53 CALM      30.43S

$$
MOZ032>034-039>042-045>050-055>058-069>072-181200-
...CENTRAL MISSOURI...

CITY           SKY/WX    TMP DP  RH WIND       PRES   REMARKS
COLUMBIA       CLOUDY    14   7  73 S9        30.35F WCI   2
JEFFERSON CITY CLOUDY    16   7  67 CALM      30.40F
ROLLA          CLOUDY    14   7  73 SW14      30.38F WCI  -1
SEDALIA        CLOUDY    20  10  65 SW21G31   30.35F WCI   4
WHITEMAN AFB   CLEAR     16   6  65 SW15      30.30F WCI   1
WARRENSBURG    CLOUDY    18   9  68 S9        30.35F WCI   6
OSAGE BEACH    CLOUDY    12   6  77 S7        30.40F WCI   1

$$
MOZ051-052-059>065-181200-
...EAST CENTRAL MISSOURI...

CITY           SKY/WX    TMP DP  RH WIND       PRES   REMARKS
ST LOUIS INTL  CLOUDY    20   9  62 SW13      30.39F WCI   7
SPIRIT OF STL  CLEAR     20   9  62 SW9       30.40F WCI   9
ST CHARLES     CLOUDY    13   7  77 SW9       30.39F WCI   1

$$
MOZ072>076-082>087-097>100-106>115-181200-
...SOUTH CENTRAL AND SOUTHEAST MISSOURI...

CITY           SKY/WX    TMP DP  RH WIND       PRES   REMARKS
CAPE GIRARDEAU FAIR       9   6  88 CALM      30.49F
FARMINGTON     CLOUDY    15   8  73 S6        30.41F WCI   6
POPLAR BLUFF   FAIR      13  10  88 SW3       30.49F FOG
WEST PLAINS    CLOUDY    15   7  70 SW5       30.42F WCI   8

$$



USA.gov is the U.S. government's official web portal to all federal, state and local government web resources and services.